| time (UTC) | temp F | wind direction | speed knots | gust knots | rain 1hr in | rain 24hr in | rain mn in | humidity % | barometer mb |
| 20260505020556 | 56 | 0 | 0.0 | 0.0 | 0.00 | 0.27 | 0.00 | 92 | 1010.9 |
| 20260505015558 | 56 | 0 | 0.0 | 0.0 | 0.00 | 0.27 | 0.00 | 92 | 1010.9 |
| 20260505015100 | 56 | 0 | 0.0 | 0.0 | 0.00 | 0.27 | 0.00 | 92 | 1010.9 |
| 20260505014611 | 56 | 0 | 0.0 | 0.0 | 0.00 | 0.27 | 0.00 | 92 | 1011.0 |
| 20260505014059 | 56 | 0 | 0.0 | 0.0 | 0.00 | 0.27 | 0.00 | 92 | 1011.0 |
| 20260505013557 | 56 | 0 | 0.0 | 0.0 | 0.00 | 0.27 | 0.00 | 92 | 1010.9 |
| 20260505013101 | 56 | 0 | 0.0 | 0.0 | 0.00 | 0.27 | 0.00 | 92 | 1010.9 |
| 20260505012557 | 56 | 0 | 0.0 | 0.0 | 0.00 | 0.27 | 0.00 | 92 | 1010.9 |
| 20260505012057 | 56 | 0 | 0.0 | 0.0 | 0.00 | 0.27 | 0.00 | 92 | 1010.9 |
| 20260505011601 | 56 | 0 | 0.0 | 0.0 | 0.00 | 0.27 | 0.00 | 92 | 1011.0 |
| 20260505011101 | 56 | 0 | 0.0 | 0.0 | 0.00 | 0.27 | 0.00 | 92 | 1011.1 |
| 20260505010557 | 56 | 0 | 0.0 | 0.0 | 0.00 | 0.27 | 0.00 | 92 | 1011.2 |
| 20260505005601 | 56 | 0 | 0.0 | 0.0 | 0.00 | 0.27 | 0.00 | 92 | 1011.3 |
| 20260505005057 | 56 | 0 | 0.0 | 0.0 | 0.00 | 0.27 | 0.00 | 92 | 1011.2 |
| 20260505004559 | 56 | 0 | 0.0 | 0.0 | 0.00 | 0.27 | 0.00 | 92 | 1011.2 |
| 20260505004100 | 56 | 0 | 0.0 | 0.0 | 0.00 | 0.27 | 0.00 | 92 | 1011.3 |
| 20260505003556 | 57 | 0 | 0.0 | 0.0 | 0.00 | 0.27 | 0.00 | 92 | 1011.4 |
| 20260505003115 | 57 | 0 | 0.0 | 0.0 | 0.00 | 0.27 | 0.00 | 92 | 1011.4 |
| 20260505002556 | 57 | 0 | 0.0 | 0.0 | 0.00 | 0.27 | 0.00 | 92 | 1011.4 |
| 20260505002057 | 57 | 0 | 0.0 | 0.0 | 0.00 | 0.27 | 0.00 | 92 | 1011.5 |
| 20260505001612 | 57 | 0 | 0.0 | 0.0 | 0.00 | 0.27 | 0.00 | 92 | 1011.5 |
| 20260505001057 | 57 | 0 | 0.0 | 0.0 | 0.00 | 0.27 | 0.00 | 92 | 1011.6 |
| 20260505000557 | 57 | 0 | 0.0 | 0.0 | 0.00 | 0.27 | 0.00 | 92 | 1011.6 |
| 20260505000108 | 57 | 0 | 0.0 | 0.0 | 0.00 | 0.27 | 0.00 | 92 | 1011.7 |
| 20260504235557 | 57 | 0 | 0.0 | 0.0 | 0.00 | 0.27 | 0.00 | 92 | 1011.7 |
| 20260504235057 | 57 | 0 | 0.0 | 0.0 | 0.00 | 0.27 | 0.00 | 92 | 1011.8 |
| 20260504234558 | 57 | 0 | 0.0 | 0.0 | 0.00 | 0.27 | 0.00 | 92 | 1011.8 |
| 20260504234057 | 57 | 0 | 0.0 | 0.0 | 0.00 | 0.27 | 0.00 | 92 | 1011.9 |
| 20260504233557 | 57 | 0 | 0.0 | 0.0 | 0.00 | 0.27 | 0.00 | 92 | 1011.9 |
| 20260504233103 | 57 | 0 | 0.0 | 0.0 | 0.00 | 0.27 | 0.00 | 92 | 1011.9 |
| 20260504232559 | 57 | 0 | 0.0 | 0.0 | 0.00 | 0.27 | 0.00 | 92 | 1011.9 |
| 20260504232059 | 57 | 0 | 0.0 | 0.0 | 0.00 | 0.27 | 0.00 | 92 | 1012.0 |
| 20260504231559 | 57 | 0 | 0.0 | 0.0 | 0.00 | 0.27 | 0.00 | 92 | 1012.0 |
| 20260504231056 | 57 | 0 | 0.0 | 0.0 | 0.00 | 0.27 | 0.00 | 92 | 1012.1 |
| 20260504230600 | 57 | 0 | 0.0 | 0.0 | 0.00 | 0.27 | 0.00 | 92 | 1012.1 |
| 20260504230059 | 57 | 0 | 0.0 | 0.0 | 0.00 | 0.27 | 0.00 | 92 | 1012.1 |
| 20260504225557 | 57 | 0 | 0.0 | 0.0 | 0.00 | 0.27 | 0.00 | 92 | 1012.1 |
| 20260504225056 | 57 | 0 | 0.0 | 0.0 | 0.01 | 0.27 | 0.00 | 92 | 1012.1 |
| 20260504224559 | 57 | 0 | 0.0 | 0.0 | 0.01 | 0.27 | 0.00 | 92 | 1012.2 |
| 20260504224100 | 57 | 0 | 0.0 | 0.0 | 0.00 | 0.26 | 0.00 | 92 | 1012.2 |
| 20260504223601 | 57 | 0 | 0.0 | 0.0 | 0.01 | 0.26 | 0.00 | 92 | 1012.1 |
| 20260504223117 | 57 | 0 | 0.0 | 0.0 | 0.01 | 0.26 | 0.00 | 91 | 1012.2 |
| 20260504222557 | 57 | 0 | 0.0 | 0.0 | 0.01 | 0.26 | 0.00 | 91 | 1012.3 |
| 20260504222057 | 57 | 0 | 0.0 | 0.0 | 0.01 | 0.26 | 0.00 | 91 | 1012.4 |
| 20260504221555 | 57 | 0 | 0.0 | 0.0 | 0.01 | 0.26 | 0.00 | 91 | 1012.4 |
| 20260504221057 | 58 | 0 | 0.0 | 0.0 | 0.01 | 0.26 | 0.00 | 91 | 1012.5 |
| 20260504220557 | 58 | 0 | 0.0 | 0.0 | 0.01 | 0.26 | 0.00 | 91 | 1012.6 |
| 20260504215558 | 58 | 0 | 0.0 | 0.9 | 0.02 | 0.26 | 0.26 | 91 | 1012.8 |
| 20260504215057 | 58 | 0 | 0.0 | 1.7 | 0.01 | 0.25 | 0.25 | 91 | 1012.8 |
| 20260504214559 | 58 | 0 | 0.0 | 1.7 | 0.02 | 0.25 | 0.25 | 91 | 1012.8 |
| 20260504214100 | 58 | 0 | 0.0 | 1.7 | 0.02 | 0.25 | 0.25 | 91 | 1012.9 |
| 20260504213556 | 58 | 0 | 0.0 | 1.7 | 0.01 | 0.25 | 0.25 | 91 | 1012.9 |
| 20260504213109 | 58 | 0 | 0.0 | 1.7 | 0.01 | 0.25 | 0.25 | 91 | 1012.9 |
| 20260504212556 | 58 | 0 | 0.0 | 1.7 | 0.01 | 0.25 | 0.25 | 91 | 1012.9 |
| 20260504212058 | 58 | 0 | 0.0 | 0.0 | 0.02 | 0.25 | 0.25 | 91 | 1012.9 |
| 20260504211649 | 58 | 0 | 0.0 | 0.0 | 0.03 | 0.25 | 0.25 | 91 | 1013.0 |
| 20260504211059 | 58 | 0 | 0.0 | 0.0 | 0.03 | 0.25 | 0.25 | 90 | 1013.1 |
| 20260504210601 | 58 | 0 | 0.0 | 0.0 | 0.03 | 0.25 | 0.25 | 90 | 1013.1 |
| 20260504210056 | 58 | 0 | 0.0 | 0.9 | 0.03 | 0.25 | 0.25 | 90 | 1013.0 |
| 20260504205601 | 58 | 0 | 0.0 | 0.9 | 0.03 | 0.24 | 0.24 | 90 | 1013.1 |
| 20260504205056 | 58 | 360 | 0.0 | 2.6 | 0.03 | 0.24 | 0.24 | 90 | 1013.0 |
| 20260504204603 | 58 | 0 | 0.0 | 2.6 | 0.02 | 0.23 | 0.23 | 90 | 1013.0 |
| 20260504204057 | 58 | 360 | 0.9 | 2.6 | 0.03 | 0.23 | 0.23 | 90 | 1013.1 |
| 20260504203556 | 58 | 0 | 0.0 | 2.6 | 0.03 | 0.23 | 0.23 | 90 | 1013.2 |
| 20260504203108 | 58 | 360 | 0.9 | 2.6 | 0.06 | 0.23 | 0.23 | 89 | 1013.3 |
| 20260504202557 | 58 | 360 | 0.0 | 0.0 | 0.07 | 0.23 | 0.23 | 89 | 1013.3 |
| 20260504202057 | 58 | 0 | 0.0 | 0.0 | 0.08 | 0.22 | 0.22 | 89 | 1013.1 |
| 20260504201612 | 58 | 0 | 0.0 | 0.0 | 0.09 | 0.22 | 0.22 | 89 | 1013.2 |
| 20260504201056 | 58 | 0 | 0.0 | 0.0 | 0.11 | 0.22 | 0.22 | 88 | 1013.1 |
| 20260504200556 | 58 | 0 | 0.0 | 0.0 | 0.12 | 0.22 | 0.22 | 88 | 1013.1 |
| 20260504200057 | 58 | 0 | 0.0 | 0.0 | 0.14 | 0.21 | 0.21 | 88 | 1013.1 |
| 20260504195558 | 58 | 0 | 0.0 | 0.0 | 0.15 | 0.21 | 0.21 | 87 | 1013.0 |
| 20260504195057 | 59 | 0 | 0.0 | 0.0 | 0.17 | 0.21 | 0.21 | 87 | 1013.1 |
| 20260504194557 | 59 | 0 | 0.0 | 0.0 | 0.18 | 0.21 | 0.21 | 87 | 1013.0 |
| 20260504194057 | 59 | 0 | 0.0 | 1.7 | 0.18 | 0.20 | 0.20 | 87 | 1012.9 |
| 20260504193557 | 59 | 0 | 0.0 | 1.7 | 0.18 | 0.19 | 0.19 | 86 | 1012.8 |
| 20260504193107 | 59 | 360 | 0.0 | 2.6 | 0.17 | 0.17 | 0.17 | 85 | 1012.7 |
| 20260504192556 | 59 | 0 | 0.0 | 2.6 | 0.15 | 0.15 | 0.15 | 85 | 1012.9 |
| 20260504192056 | 59 | 0 | 0.0 | 5.2 | 0.14 | 0.14 | 0.14 | 85 | 1012.9 |
| 20260504191611 | 60 | 0 | 0.9 | 5.2 | 0.12 | 0.12 | 0.12 | 84 | 1012.8 |
| 20260504191058 | 60 | 360 | 0.9 | 7.8 | 0.11 | 0.11 | 0.11 | 84 | 1012.8 |
| 20260504190558 | 60 | 360 | 2.6 | 8.7 | 0.09 | 0.09 | 0.09 | 83 | 1012.8 |
| 20260504190108 | 60 | 360 | 3.5 | 9.6 | 0.07 | 0.07 | 0.07 | 82 | 1012.7 |
| 20260504185557 | 61 | 360 | 5.2 | 12.2 | 0.05 | 0.05 | 0.05 | 80 | 1012.8 |
| 20260504185100 | 62 | 360 | 5.2 | 12.2 | 0.03 | 0.03 | 0.03 | 79 | 1012.7 |
| 20260504184559 | 63 | 360 | 7.0 | 15.6 | 0.03 | 0.03 | 0.03 | 77 | 1012.5 |
| 20260504184057 | 64 | 360 | 7.8 | 15.6 | 0.01 | 0.01 | 0.01 | 74 | 1012.4 |
| 20260504183600 | 65 | 360 | 7.8 | 15.6 | 0.00 | 0.00 | 0.00 | 72 | 1012.4 |
| 20260504183057 | 66 | 234 | 2.6 | 5.2 | 0.00 | 0.00 | 0.00 | 70 | 1012.1 |
| 20260504182558 | 67 | 0 | 0.0 | 0.9 | 0.00 | 0.00 | 0.00 | 66 | 1011.9 |
| 20260504182057 | 67 | 0 | 0.0 | 5.2 | 0.00 | 0.00 | 0.00 | 63 | 1011.7 |
| 20260504181601 | 67 | 0 | 0.0 | 5.2 | 0.00 | 0.00 | 0.00 | 62 | 1011.7 |
| 20260504181058 | 67 | 0 | 0.9 | 4.3 | 0.00 | 0.00 | 0.00 | 62 | 1011.6 |
| 20260504180557 | 67 | 70 | 1.7 | 7.8 | 0.00 | 0.00 | 0.00 | 61 | 1011.6 |
| 20260504180059 | 67 | 76 | 2.6 | 7.8 | 0.00 | 0.00 | 0.00 | 60 | 1011.5 |
| 20260504175559 | 68 | 346 | 4.3 | 7.8 | 0.00 | 0.00 | 0.00 | 59 | 1011.4 |
| 20260504175057 | 68 | 25 | 1.7 | 5.2 | 0.00 | 0.00 | 0.00 | 58 | 1011.4 |
| 20260504174556 | 68 | 340 | 1.7 | 5.2 | 0.00 | 0.00 | 0.00 | 58 | 1011.3 |
| 20260504174058 | 68 | 346 | 2.6 | 7.8 | 0.00 | 0.00 | 0.00 | 58 | 1011.4 |
| 20260504173600 | 69 | 34 | 1.7 | 7.8 | 0.00 | 0.00 | 0.00 | 57 | 1011.4 |
| 20260504173059 | 69 | 24 | 4.3 | 8.7 | 0.00 | 0.00 | 0.00 | 57 | 1011.4 |
| 20260504172557 | 69 | 32 | 4.3 | 9.6 | 0.00 | 0.00 | 0.00 | 56 | 1011.4 |
| 20260504172057 | 69 | 29 | 4.3 | 9.6 | 0.00 | 0.00 | 0.00 | 56 | 1011.4 |
| 20260504171557 | 70 | 21 | 3.5 | 7.8 | 0.00 | 0.00 | 0.00 | 54 | 1011.4 |
| 20260504171057 | 70 | 44 | 1.7 | 7.0 | 0.00 | 0.00 | 0.00 | 54 | 1011.4 |
| 20260504170558 | 70 | 41 | 2.6 | 7.0 | 0.00 | 0.00 | 0.00 | 53 | 1011.4 |
| 20260504151101 | 73 | 265 | 3.5 | 8.7 | 0.00 | 0.00 | 0.00 | 49 | 1011.6 |
| 20260504150557 | 73 | 325 | 2.6 | 7.0 | 0.00 | 0.00 | 0.00 | 48 | 1011.7 |
| 20260504141056 | 73 | 238 | 2.6 | 7.0 | 0.00 | 0.00 | 0.00 | 49 | 1011.8 |
| 20260504140556 | 73 | 0 | 1.7 | 7.0 | 0.00 | 0.00 | 0.00 | 47 | 1011.9 |
| 20260504130557 | 74 | 290 | 2.6 | 7.8 | 0.00 | 0.00 | 0.00 | 49 | 1012.4 |
| 20260504110556 | 71 | 248 | 4.3 | 8.7 | 0.00 | 0.00 | 0.00 | 53 | 1012.9 |
| 20260504100557 | 70 | 223 | 2.6 | 8.7 | 0.00 | 0.00 | 0.00 | 60 | 1013.2 |
| 20260504081556 | 65 | 229 | 5.2 | 11.3 | 0.00 | 0.00 | 0.00 | 66 | 1013.6 |
| 20260504081057 | 65 | 259 | 6.1 | 11.3 | 0.00 | 0.00 | 0.00 | 67 | 1013.5 |
| 20260504080558 | 64 | 234 | 4.3 | 9.6 | 0.00 | 0.00 | 0.00 | 68 | 1013.6 |
| 20260504070111 | 61 | 360 | 3.5 | 7.8 | 0.00 | 0.00 | 0.00 | 71 | 1013.1 |
| 20260504050556 | 56 | 253 | 2.6 | 6.1 | 0.00 | 0.00 | 0.00 | 75 | 1012.5 |
| 20260504045557 | 56 | 229 | 1.7 | 6.1 | 0.00 | 0.00 | 0.00 | 75 | 1012.3 |
| 20260504045055 | 56 | 234 | 2.6 | 6.1 | 0.00 | 0.00 | 0.00 | 75 | 1012.2 |
| 20260504044557 | 56 | 230 | 1.7 | 5.2 | 0.00 | 0.00 | 0.00 | 75 | 1012.1 |
| 20260504044055 | 56 | 360 | 1.7 | 4.3 | 0.00 | 0.00 | 0.00 | 75 | 1012.1 |
| 20260504043555 | 56 | 360 | 1.7 | 4.3 | 0.00 | 0.00 | 0.00 | 75 | 1012.0 |
| 20260504043100 | 55 | 360 | 1.7 | 3.5 | 0.00 | 0.00 | 0.00 | 75 | 1011.9 |
| 20260504042555 | 55 | 360 | 0.9 | 3.5 | 0.00 | 0.00 | 0.00 | 75 | 1011.9 |
| 20260504042056 | 55 | 0 | 0.9 | 5.2 | 0.00 | 0.00 | 0.00 | 75 | 1011.9 |
| 20260504041555 | 55 | 219 | 1.7 | 7.0 | 0.00 | 0.00 | 0.00 | 75 | 1011.9 |
| 20260504041057 | 55 | 360 | 2.6 | 7.0 | 0.00 | 0.00 | 0.00 | 76 | 1011.8 |
| 20260504040557 | 55 | 360 | 2.6 | 7.0 | 0.00 | 0.00 | 0.00 | 76 | 1012.0 |
| 20260504040137 | 55 | 360 | 1.7 | 5.2 | 0.00 | 0.00 | 0.00 | 76 | 1011.8 |
| 20260504035557 | 55 | 360 | 1.7 | 5.2 | 0.00 | 0.00 | 0.00 | 76 | 1011.8 |
| 20260504035100 | 55 | 360 | 1.7 | 4.3 | 0.00 | 0.00 | 0.00 | 75 | 1011.8 |
| 20260504034604 | 55 | 360 | 0.9 | 3.5 | 0.00 | 0.00 | 0.00 | 75 | 1011.9 |
| 20260504034058 | 55 | 360 | 0.0 | 3.5 | 0.00 | 0.00 | 0.00 | 75 | 1011.9 |
| 20260504033558 | 54 | 360 | 0.9 | 5.2 | 0.00 | 0.00 | 0.00 | 75 | 1011.9 |
| 20260504033058 | 54 | 360 | 1.7 | 5.2 | 0.00 | 0.00 | 0.00 | 75 | 1011.9 |
| 20260504032557 | 54 | 360 | 2.6 | 7.0 | 0.00 | 0.00 | 0.00 | 75 | 1011.7 |
| 20260504032102 | 54 | 360 | 2.6 | 7.0 | 0.00 | 0.00 | 0.00 | 75 | 1011.8 |
| 20260504031621 | 54 | 360 | 3.5 | 7.0 | 0.00 | 0.00 | 0.00 | 75 | 1011.8 |
| 20260504031057 | 54 | 360 | 2.6 | 5.2 | 0.00 | 0.00 | 0.00 | 75 | 1011.8 |
| 20260504030557 | 54 | 360 | 2.6 | 7.0 | 0.00 | 0.00 | 0.00 | 75 | 1011.8 |
| 20260504030057 | 55 | 360 | 2.6 | 7.0 | 0.00 | 0.00 | 0.00 | 75 | 1011.8 |
| 20260504025557 | 55 | 360 | 3.5 | 7.0 | 0.00 | 0.00 | 0.00 | 74 | 1011.8 |
| 20260504025058 | 55 | 360 | 3.5 | 7.0 | 0.00 | 0.00 | 0.00 | 73 | 1011.8 |
| 20260504024603 | 55 | 360 | 2.6 | 5.2 | 0.00 | 0.00 | 0.00 | 73 | 1011.8 |
| 20260504024057 | 56 | 360 | 2.6 | 4.3 | 0.00 | 0.00 | 0.00 | 72 | 1011.7 |
| 20260504023557 | 56 | 360 | 1.7 | 4.3 | 0.00 | 0.00 | 0.00 | 71 | 1011.7 |
| 20260504023055 | 56 | 360 | 1.7 | 4.3 | 0.00 | 0.00 | 0.00 | 71 | 1011.7 |
| 20260504022557 | 56 | 360 | 1.7 | 4.3 | 0.00 | 0.00 | 0.00 | 70 | 1011.7 |
| 20260504022057 | 57 | 360 | 2.6 | 5.2 | 0.00 | 0.00 | 0.00 | 70 | 1011.7 |
| 20260504021628 | 57 | 360 | 2.6 | 5.2 | 0.00 | 0.00 | 0.00 | 70 | 1011.7 |
| 20260504021557 | 57 | 360 | 2.6 | 5.2 | 0.00 | 0.00 | 0.00 | 70 | 1011.7 |
| 20260504021056 | 57 | 360 | 2.6 | 4.3 | 0.00 | 0.00 | 0.00 | 69 | 1011.7 |